Location: Felsheim
(48.7267°N, 10.7386°E)
Time: 02:11:47
(UTC+00:00)

IGS 5A - Pass Details

Date: 09 April 2020
Orbit: 585 x 587 km, 97.6° (Epoch: 01 June)

Event Time Altitude Azimuth Distance (km) Brightness Sun altitude
Exits shadow 20:20:46 65° 133° (SE) 648 3.3 -21.2°
Maximum altitude 20:21:16 76° 75° (ENE) 609 3.3 -21.3°
Drops below altitude 10° 20:25:26 10° 350° (N) 1,921 6.8 -21.8°
Sets 20:27:36 0° 349° (NNW) 2,826 7.8 -22.1°
